{"data":{"norad_id":53554,"epoch":"2026-09-19T13:04:21.603936Z","epoch_age_seconds":161609,"freshness":"FRESH","line1":"1 53554U 22101AD  26262.54469449 -.00000240  00000+0  30273-5 0  9997","line2":"2 53554  53.1610 273.2291 0001152  95.6975 264.4148 15.08814078225578","mean_motion":15.08814078,"eccentricity":0.0001152,"inclination_deg":53.161,"raan_deg":273.2291,"arg_perigee_deg":95.6975,"mean_anomaly_deg":264.4148,"bstar":3.0273e-6,"rev_number":22557,"period_min":95.439194331271,"perigee_km":539.02567433362,"apogee_km":540.61957223083,"semimajor_km":6917.9596232822,"source":"CELESTRAK","updated_at":"2026-09-21T09:00:32.925543Z"}}